User: anonymous   Login
Location: Bidart
(43.4376°N, 1.5913°W)
Time: 22:54:35
(UTC+00:00)
Language:

Cosmos 1076 Rocket - Orbit

View from above orbital plane
View from above orbital plane
View from above satellite
View from above satellite

Ground track
Ground track

The orbit data is extracted from the following two-line orbital elements,

1 11267U 79011B   25188.87526336  .00000466  00000-0  43872-4 0  9993
2 11267  82.5254 328.7439 0016844 150.6745 209.5423 14.91508808513482
Epoch (UTC): 07 July 2025 21:00:22
Eccentricity: 0.0016844
inclination: 82.5254°
perigee height: 581 km
apogee height: 605 km
right ascension of ascending node: 328.7439°
argument of perigee: 150.6745°
revolutions per day: 14.91508808
mean anomaly at epoch: 209.5423°
orbit number at epoch: 51348

The dashed part of the orbit path shows where the satellite is in the earth's shadow,  

DLR